Tracking 35331 objects as of 16-Sep-2026
HD Live streaming from Space Station
objects crossing your sky now

STARLINK-30781

Track STARLINK-30781 now!
10-day predictions
STARLINK-30781 is classified as:


NORAD ID: 58123
Int'l Code: 2023-162F
Launch date: October 22, 2023
Source: United States (US)
Launch site: AIR FORCE EASTERN TEST RANGE (AFETR)
Your satellite tracking list
Your tracking list is empty




NASA's NSSDC Master Catalog

Two Line Element Set (TLE):
1 58123U 23162F   26258.93168773  .00000388  00000-0  23637-4 0  9994
2 58123  43.0031 137.9820 0001593 260.2392  99.8280 15.27580303161406
Source of the keplerian elements: AFSPC